Regional Weather Roundup
Issued by NWS

Home | Current Version | Previous Version | Graphics & Text | Print | Product List | Glossary Off
Versions: 1 2 3 4 5 6 7 8 9 10 11 12 13 14 15 16 17 18 19 20 21 22 23 24 25 26 27 28 29 30 31 32 33 34 35 36 37 38 39 40 41 42 43 44 45 46 47 48 49 50

000
ASUS43 KLSX 291159
RWRMO

WEATHER SUMMARY FOR MISSOURI
NATIONAL WEATHER SERVICE SPRINGFIELD MO
700 AM CDT SUN MAR 29 2015

NOTE: "FAIR" INDICATES FEW OR NO CLOUDS BELOW 12,000 FEET WITH NO
       SIGNIFICANT WEATHER AND/OR OBSTRUCTIONS TO VISIBILITY.
       CURRENT SKY AND/OR WEATHER CONDITIONS ARE NOT AVAILABLE FOR
       CHILLICOTHE AND FARMINGTON.

MOZ001>031-035>038-043-044-053-054-291300-
...NORTHERN AND WESTERN MISSOURI...

CITY           SKY/WX    TMP DP  RH WIND       PRES   REMARKS
KANSAS CTY INT CLOUDY    40  34  79 S18       29.92F
6HR MIN TEMP:  38; 6HR MAX TEMP:  40;

KANSAS C DTWN  LGT RAIN  42  33  70 S13       29.96S
6HR MIN TEMP:  40; 6HR MAX TEMP:  42; 6HR PCP: TRACE;

LEE`S SUMMIT   MOCLDY    38  32  79 S10       29.96R
6HR MIN TEMP:  36; 6HR MAX TEMP:  39;

ST JOSEPH      CLOUDY    42  35  76 S15       29.92F
6HR MIN TEMP:  40; 6HR MAX TEMP:  42;

CHILLICOTHE      N/A     39  32  76 S6        30.02R
6HR MIN TEMP:  38; 6HR MAX TEMP:  41;

KIRKSVILLE     CLOUDY    37  31  78 S15       30.00R WCI  28
6HR MIN TEMP:  32; 6HR MAX TEMP:  37; 6HR PCP: TRACE;


$$
MOZ066>068-077>081-088>096-101>105-291300-
...SOUTHWEST MISSOURI...

CITY           SKY/WX    TMP DP  RH WIND       PRES   REMARKS
SPRINGFIELD    CLEAR     36  28  73 SE25G32   30.01S WCI  24
6HR MIN TEMP:  35; 6HR MAX TEMP:  36;

JOPLIN         CLEAR     43  34  70 SE7       29.97F
6HR MIN TEMP:  39; 6HR MAX TEMP:  43;


$$
MOZ032>034-039>042-045>050-055>058-069>072-291300-
...CENTRAL MISSOURI...

CITY           SKY/WX    TMP DP  RH WIND       PRES   REMARKS
COLUMBIA       PTCLDY    36  26  67 SE15      30.06R WCI  27
6HR MIN TEMP:  34; 6HR MAX TEMP:  36;

JEFFERSON CITY PTCLDY    38  25  59 SE9       30.10R
6HR MIN TEMP:  35; 6HR MAX TEMP:  38;

ROLLA          CLEAR     35  22  58 S21G30    30.07F WCI  24
6HR MIN TEMP:  33; 6HR MAX TEMP:  35;

SEDALIA        PTCLDY    39  30  70 S24       29.97F WCI  28
6HR MIN TEMP:  37; 6HR MAX TEMP:  39;

OSAGE BEACH    PTCLDY    37  27  65 S10G22    30.06R

$$
MOZ051-052-059>065-291300-
...EAST CENTRAL MISSOURI...

CITY           SKY/WX    TMP DP  RH WIND       PRES   REMARKS
ST LOUIS INTL  PTCLDY    36  20  52 S15G21    30.16F WCI  27
6HR MIN TEMP:  35; 6HR MAX TEMP:  38;

SPIRIT OF STL  PTCLDY    34  24  67 CALM      30.16R
6HR MIN TEMP:  28; 6HR MAX TEMP:  37;

ST CHARLES     PTCLDY    34  24  67 S10       30.16S WCI  26
6HR MIN TEMP:  30; 6HR MAX TEMP:  34;


$$
MOZ072>076-082>087-097>100-106>115-291300-
...SOUTH CENTRAL AND SOUTHEAST MISSOURI...

CITY           SKY/WX    TMP DP  RH WIND       PRES   REMARKS
CAPE GIRARDEAU CLEAR     34  22  61 SE10      30.26R WCI  26
6HR MIN TEMP:  30; 6HR MAX TEMP:  34;

FARMINGTON     CLEAR     30  25  80 S9        30.20F WCI  22
6HR MIN TEMP:  30; 6HR MAX TEMP:  32;

POPLAR BLUFF   CLEAR     30  28  92 CALM      30.24S FOG
6HR MIN TEMP:  30; 6HR MAX TEMP:  34;

WEST PLAINS    CLEAR     32  26  78 S7        30.16S WCI  26
6HR MIN TEMP:  31; 6HR MAX TEMP:  32;


$$


USA.gov is the U.S. government's official web portal to all federal, state and local government web resources and services.